Location: Slidell
(30.2789°N, 89.7378°W)
Time: 00:25:31
(UTC-06:00)

Cosmos 2360 Rocket - Visible Passes

Search period start: 26 November 2014 00:00
Search period end: 06 December 2014 00:00
Orbit: 834 x 846 km, 71.0° (Epoch: 25 November)

Date Brightness Start Highest point End Pass type
(mag) Time Alt. Az. Time Alt. Az. Time Alt. Az.
29 Nov 4.5 19:30:32 10° NNW 19:30:57 12° NNW 19:30:57 12° NNW visible
30 Nov 3.8 19:14:57 10° NNW 19:16:54 23° NNW 19:16:54 23° NNW visible
01 Dec 2.6 18:59:22 10° NNW 19:03:28 48° N 19:03:28 48° N visible
02 Dec 2.0 18:43:48 10° NNW 18:49:23 65° ENE 18:51:42 35° SE visible
02 Dec 5.0 20:30:52 10° WNW 20:32:41 12° W 20:33:55 11° WSW visible
03 Dec 2.1 18:28:13 10° NNW 18:33:47 61° ENE 18:39:17 10° SSE visible
03 Dec 5.0 20:14:48 10° WNW 20:17:08 13° W 20:19:28 10° WSW visible
04 Dec 2.2 18:12:40 10° N 18:18:11 56° ENE 18:23:39 10° SSE visible
04 Dec 5.0 19:58:50 10° WNW 20:01:35 14° W 20:04:19 10° SW visible
05 Dec 2.3 17:57:06 10° N 18:02:35 52° ENE 18:08:00 10° SE visible
05 Dec 4.9 19:42:57 10° WNW 19:46:01 15° W 19:49:06 10° SW visible
